GEFSCGP_con_probscp_222.txt.gz
Probability
0 0 0 0 0 0 0 0 0 0 0 0 0 0 0 2 5 5 4 3 1 0 0 0 1 2 4 5 5 5 5 5 4 3 2 1 0 0 0 0 0 0 1 3
0 0 0 0 0 0 0 0 0 0 0 0 0 0 0 2 4 4 4 3 2 0 0 0 0 2 4 5 6 7 7 7 6 4 2 1 0 0 0 0 0 1 2 3
0 0 0 0 0 0 0 0 0 0 0 0 0 0 0 2 3 3 3 3 2 1 0 0 1 3 4 5 6 7 8 9 8 5 3 2 1 1 1 1 1 1 3 3
0 0 0 0 0 0 0 0 0 0 0 0 0 0 1 2 3 3 3 3 2 1 0 0 1 4 6 6 6 7 8 9 8 5 4 3 2 2 2 2 2 3 3 3
0 0 0 0 0 0 0 0 0 0 0 0 0 0 1 2 3 3 3 3 2 1 1 0 2 5 7 7 7 8 9 9 8 5 4 3 3 3 4 3 3 3 3 3
0 0 0 0 0 0 0 0 0 0 0 0 0 0 0 1 3 3 3 3 3 3 2 1 3 6 8 8 8 8 9 9 7 5 4 4 4 6 6 4 3 3 3 3
0 0 0 0 0 0 0 0 0 0 0 0 0 0 0 1 3 3 3 4 5 5 4 4 5 8 9 10 9 8 7 6 4 3 3 4 6 8 7 5 3 3 3 3
0 0 0 0 0 0 0 0 0 0 0 0 0 0 1 2 3 4 5 7 7 7 7 8 7 8 10 11 11 8 5 2 1 0 1 3 6 7 6 4 2 2 3 3
0 0 0 0 0 0 0 0 0 0 0 0 0 0 1 2 4 7 8 9 9 10 11 11 9 8 10 11 11 9 4 2 0 0 1 3 5 7 6 5 4 4 4 4
0 0 0 0 0 0 0 0 0 0 0 0 0 0 0 1 4 8 9 8 9 10 11 10 9 8 9 9 9 7 4 1 0 1 2 3 5 7 8 7 7 6 5 4
0 0 0 0 0 0 0 0 0 0 0 0 0 0 1 2 4 7 7 5 5 5 6 7 7 6 6 7 7 5 3 1 1 3 3 4 5 7 8 9 8 6 5 4
0 0 0 0 0 0 0 0 0 0 0 0 0 1 4 6 7 7 6 4 3 3 3 5 6 6 7 8 7 5 4 3 4 4 3 3 4 5 7 7 6 5 5 4
0 0 0 0 0 0 0 0 0 0 0 0 0 3 7 10 11 9 7 7 6 5 6 6 6 7 9 9 9 8 7 7 6 5 3 2 2 4 5 4 4 4 4 4
0 0 0 0 0 0 1 1 0 0 0 1 2 5 9 11 11 9 9 10 10 11 11 9 8 9 10 9 9 11 12 11 10 7 5 3 3 3 3 2 2 2 3 4
0 0 1 1 1 2 3 3 2 1 2 4 6 8 8 7 7 7 7 10 13 14 15 13 11 11 10 10 11 14 14 13 11 9 6 4 3 2 1 1 1 1 1 3
0 1 2 2 2 3 5 5 4 4 6 8 10 8 5 4 4 4 4 7 10 14 15 15 14 12 11 12 14 15 16 14 11 9 7 4 2 1 0 0 1 0 0 1
0 1 2 2 1 2 3 3 4 6 8 10 10 7 4 3 3 3 4 5 7 11 14 14 13 11 11 13 15 16 17 16 14 12 10 8 5 3 2 2 2 1 0 0
0 0 1 1 0 1 1 1 3 6 7 7 8 8 7 7 7 8 9 9 9 11 12 12 10 8 8 12 15 17 18 18 17 15 15 15 12 8 6 5 4 2 1 0
0 0 0 0 0 0 1 1 2 5 5 5 8 11 12 11 11 12 11 11 11 12 12 10 7 5 6 10 14 17 18 17 16 16 17 18 16 12 8 7 6 5 3 1
0 0 0 0 0 0 0 0 1 2 3 5 9 13 14 12 10 11 9 8 10 12 13 11 7 5 7 11 15 17 17 16 15 15 16 17 16 14 11 10 9 7 4 4
0 0 0 0 0 0 0 0 0 0 2 5 8 11 12 9 7 8 7 6 7 10 12 11 9 8 9 14 17 17 16 16 15 14 15 16 16 15 14 13 12 8 6 6
0 0 0 0 0 0 0 0 0 1 2 6 8 9 9 8 8 7 7 6 6 8 10 10 10 10 11 14 17 18 17 17 16 15 15 17 17 15 14 14 11 9 7 7
1 0 1 1 0 0 0 1 1 3 5 8 9 9 9 10 9 7 6 6 6 7 9 9 9 10 10 12 15 17 17 18 19 18 17 18 18 17 15 14 11 10 8 7
1 1 2 2 1 1 1 1 3 5 7 9 11 11 11 11 9 7 6 5 6 7 9 9 9 8 8 9 11 13 15 17 18 18 17 17 17 17 17 16 13 11 10 8
1 1 2 2 2 1 1 1 3 6 8 10 11 11 10 9 8 6 5 5 6 7 8 8 8 6 5 7 8 10 13 15 16 15 14 13 14 15 17 17 14 11 9 8
0 1 2 2 1 1 0 1 3 6 8 10 11 10 8 8 8 6 4 4 5 7 7 8 7 4 3 5 7 9 11 14 15 13 12 12 13 14 16 17 14 10 7 7

GEFSCGP_con_probscp_228.txt.gz
Probability
0 0 0 0 0 0 0 0 0 0 0 0 0 0 0 0 0 0 0 1 1 2 2 1 0 0 2 6 11 14 15 14 11 9 9 9 8 7 5 4 4 4 4 4
0 0 0 0 0 0 0 0 0 0 0 0 0 0 0 0 0 0 1 1 2 3 2 1 0 1 3 7 10 12 13 13 13 11 10 10 9 7 5 6 7 7 6 5
0 0 0 0 0 0 0 0 0 0 0 0 0 0 0 1 2 1 1 1 2 4 4 2 2 4 5 8 10 10 11 13 14 13 10 10 10 8 6 7 8 9 9 8
0 0 0 0 0 0 0 0 0 0 0 0 0 0 0 2 3 3 2 1 3 6 7 6 6 8 8 9 9 9 10 11 13 12 10 10 11 10 8 8 8 9 9 10
0 0 0 0 0 0 1 1 1 0 0 0 0 0 0 1 3 3 3 3 5 9 10 9 9 10 10 10 9 9 9 10 11 11 11 11 13 13 12 10 9 9 10 10
0 0 0 0 1 1 2 2 1 0 0 0 0 0 0 1 3 4 5 6 7 10 11 12 12 14 14 12 10 9 9 10 12 12 12 13 14 16 16 15 13 12 11 10
0 0 0 0 1 2 2 2 1 0 0 0 0 0 1 2 4 5 6 7 8 9 11 12 15 18 18 15 13 12 11 12 13 12 12 12 13 16 17 15 14 13 12 11
0 0 0 1 1 1 1 1 0 0 0 0 0 1 2 2 2 3 5 7 9 11 12 13 16 19 19 16 15 15 16 16 14 11 10 10 11 13 14 13 11 11 11 11
0 0 0 1 1 1 1 0 0 0 0 0 0 1 2 3 3 4 7 9 12 15 16 15 15 17 17 15 14 15 17 18 15 12 10 10 10 12 12 10 8 8 9 10
0 0 0 1 1 1 1 0 0 0 0 0 0 0 3 6 7 7 10 12 16 19 19 16 15 15 15 14 13 13 15 17 15 13 11 10 10 10 8 7 7 9 11 12
0 0 0 0 0 1 1 0 0 0 0 0 0 1 4 8 10 10 11 14 18 20 18 15 14 14 14 14 13 12 13 14 14 12 10 10 9 8 7 6 8 12 15 17
0 0 0 0 0 0 0 0 0 0 0 0 0 2 6 11 12 11 13 17 19 17 15 13 13 14 13 11 12 12 12 13 13 12 11 11 11 9 7 8 9 13 16 18
0 0 1 0 0 0 0 0 0 0 0 0 2 6 10 15 16 16 17 19 19 17 15 14 15 15 13 10 12 12 12 12 13 13 12 12 12 9 7 8 8 10 13 16
0 0 0 0 0 0 0 0 0 0 0 1 4 8 13 17 19 19 19 19 19 19 20 19 19 19 17 15 15 15 14 13 13 12 12 12 11 8 6 6 6 6 9 12
0 0 0 0 0 1 1 1 2 2 2 3 5 9 12 15 17 18 18 20 21 22 22 22 21 21 21 20 21 22 20 18 15 13 13 12 10 8 5 4 4 4 6 7
0 0 0 0 0 1 2 3 3 3 3 4 5 9 12 14 16 17 19 21 21 20 22 23 21 21 22 23 25 27 26 23 20 16 14 13 13 10 7 5 5 6 7 7
1 1 1 0 0 1 2 3 4 5 5 5 7 10 13 16 18 20 22 21 18 18 21 22 20 20 22 23 25 29 30 27 24 19 16 16 16 15 12 11 11 12 13 13
2 2 1 0 0 0 1 3 5 6 5 6 8 11 15 19 21 22 21 19 18 20 21 20 17 18 22 24 26 29 31 30 27 22 18 19 20 19 17 18 19 20 20 20
2 2 2 0 0 0 0 1 3 4 5 7 10 14 18 21 21 21 20 18 21 25 24 20 17 19 23 26 28 29 30 30 28 23 21 22 24 23 23 23 23 24 25 24
1 2 2 1 0 0 1 2 2 3 6 10 14 18 21 21 21 24 23 22 25 27 26 24 23 23 25 27 28 28 27 27 27 24 23 26 28 27 26 25 24 25 24 23
0 1 2 1 0 2 4 4 4 7 11 15 19 23 26 26 27 29 29 29 28 27 26 26 26 25 25 26 27 26 25 24 24 24 25 29 30 28 26 25 24 23 22 20
1 2 2 3 3 5 8 9 9 12 16 18 22 28 33 34 33 32 31 31 28 25 25 26 25 25 26 28 29 27 24 23 25 27 28 31 31 28 27 27 25 23 21 19
4 5 7 7 7 9 11 11 11 14 17 19 23 30 35 36 34 32 30 29 26 25 24 23 22 24 28 31 32 29 26 26 28 31 32 32 31 29 28 29 28 25 23 21
9 10 11 12 11 11 11 10 11 14 17 20 22 27 30 30 30 31 31 29 27 26 23 19 17 21 27 31 31 30 29 28 30 32 32 30 29 28 27 27 27 26 25 24
11 12 15 16 15 13 11 10 11 14 18 20 20 21 23 24 25 29 31 31 30 28 25 20 17 18 23 27 29 29 29 27 28 29 28 26 25 26 25 22 21 22 22 22
10 13 16 17 17 15 14 12 12 13 17 19 19 19 20 21 24 27 30 31 30 30 29 23 18 17 20 24 26 28 28 26 26 26 25 24 24 25 24 20 18 17 18 18

GEFSCGP_con_probscp_234.txt.gz
Probability
0 0 0 0 0 0 0 0 0 0 0 0 0 0 1 0 3 9 13 13 10 7 6 6 8 13 19 23 25 24 21 18 13 10 13 19 20 17 17 19 18 16 14 11
0 0 0 0 0 0 0 0 0 0 1 1 0 1 2 1 2 6 10 10 8 6 6 7 9 14 20 25 26 25 23 20 16 12 12 16 17 16 16 18 18 16 15 14
0 0 0 0 0 0 0 0 0 1 2 1 1 2 4 2 1 3 6 8 8 7 8 10 12 16 21 26 26 25 25 22 18 14 13 13 15 17 18 19 18 17 16 16
0 0 0 0 0 0 0 0 0 1 1 1 1 3 5 4 2 4 6 7 8 9 11 15 16 17 22 25 26 26 26 23 17 15 14 14 16 19 20 20 20 18 17 16
0 0 0 0 0 0 0 0 0 0 0 0 0 2 6 7 6 6 7 8 9 10 14 20 21 20 21 24 26 27 27 24 18 15 15 16 18 19 19 19 20 20 19 19
0 0 0 0 0 0 0 0 0 0 0 0 0 2 5 7 8 6 5 7 10 12 16 23 26 24 23 24 25 26 27 25 21 18 17 17 18 18 18 20 22 21 21 21
0 0 0 0 0 0 0 0 0 0 0 0 0 3 6 7 7 6 5 7 11 13 16 23 28 29 28 27 25 27 30 29 24 22 21 19 19 19 20 23 23 20 19 19
0 0 0 0 0 0 0 0 0 0 0 0 2 5 7 8 8 8 8 9 12 15 19 23 28 33 33 29 26 29 34 33 26 23 23 22 22 22 22 23 21 18 16 16
0 0 0 0 0 0 0 0 0 0 0 0 3 6 8 9 8 8 10 12 14 18 23 27 32 35 34 30 27 31 36 34 27 23 24 24 24 23 23 21 19 17 16 15
0 0 0 0 0 0 0 0 0 1 1 0 3 8 10 10 9 10 14 16 17 21 27 32 36 37 33 29 29 33 36 34 28 26 25 24 23 22 21 20 17 16 16 17
0 0 1 1 0 0 0 0 0 1 2 1 3 9 12 11 11 15 20 21 22 24 28 33 38 38 35 30 30 34 36 34 29 26 26 25 24 21 20 20 18 16 14 14
1 1 2 1 0 0 0 0 0 1 2 1 4 10 13 13 14 20 25 27 28 28 30 35 39 40 37 34 34 37 37 36 32 29 29 28 26 22 20 18 16 13 11 11
2 2 2 1 0 0 0 0 0 0 1 1 5 11 14 16 20 25 30 32 33 34 35 41 46 44 39 39 42 42 39 37 36 36 35 33 29 24 20 16 12 10 10 10
3 2 1 0 0 0 0 0 0 0 0 1 6 11 15 21 27 30 33 35 35 37 41 48 53 50 45 47 49 45 40 39 42 43 41 37 32 26 22 17 13 11 11 11
2 1 0 0 0 0 0 0 0 1 1 3 7 10 17 25 31 34 35 37 39 41 46 54 59 57 53 54 53 48 43 44 46 45 42 38 33 28 24 21 16 14 14 13
1 1 0 0 0 0 0 0 1 2 3 5 6 10 18 27 33 35 36 40 44 47 53 59 62 60 57 56 56 52 48 47 48 46 41 38 34 29 25 23 20 17 18 18
2 2 1 0 0 0 1 2 3 5 7 8 9 13 22 30 34 36 38 42 47 52 59 64 65 63 60 58 58 55 50 48 47 45 42 39 35 30 27 26 25 25 26 26
4 4 3 1 0 1 2 3 3 6 10 12 14 19 25 32 35 37 41 46 49 54 60 62 63 62 60 59 57 53 48 44 43 43 43 41 36 33 32 32 34 35 35 34
4 6 5 2 1 2 4 4 3 5 10 15 18 22 28 33 35 40 46 49 50 52 54 56 55 54 55 56 53 47 43 40 37 39 42 40 36 35 35 37 39 40 39 37
3 5 4 2 2 4 6 5 4 6 12 19 23 27 33 35 38 45 49 49 51 49 49 50 48 48 50 51 48 43 40 38 36 38 41 38 34 33 34 36 40 41 39 36
2 3 4 4 4 7 9 7 8 13 18 22 27 33 39 43 47 51 50 49 49 48 47 47 47 49 50 49 45 43 42 40 39 40 39 36 33 31 32 34 38 39 38 36
2 4 8 9 10 14 15 12 14 21 25 25 28 33 40 46 52 53 50 46 44 44 43 43 47 50 51 49 46 46 47 46 44 41 38 35 33 32 32 34 35 36 36 35
6 9 14 17 20 21 19 17 20 23 25 25 26 31 37 42 46 47 45 42 39 39 38 39 43 46 47 45 45 48 50 50 46 42 39 36 34 33 34 34 32 31 31 31
9 14 21 26 25 21 17 16 20 23 23 23 25 29 34 36 37 40 41 40 38 36 37 36 37 41 42 40 41 45 47 47 44 40 37 35 33 31 32 32 28 25 25 26
10 16 25 29 25 20 16 15 19 23 24 23 23 25 28 30 32 35 38 38 36 36 38 37 36 39 41 40 40 42 43 42 40 37 31 28 28 28 28 27 23 20 20 20
9 15 24 28 27 22 19 17 19 23 24 23 22 21 22 26 30 32 34 33 33 36 40 39 38 40 43 43 43 44 43 41 38 34 28 23 23 25 25 24 20 16 15 15

GEFSCGP_con_probscp_240.txt.gz
Probability
0 0 0 0 0 0 0 0 0 0 0 0 1 3 5 6 4 2 2 4 6 4 6 12 13 10 7 4 3 2 1 1 1 2 2 2 1 2 3 4 3 2 1 0
0 0 0 0 0 0 0 0 0 0 0 0 1 3 6 6 4 2 5 7 7 4 6 11 13 11 9 6 4 3 2 2 2 3 3 3 4 4 5 4 4 3 3 2
0 0 0 0 0 0 0 0 0 0 0 0 1 2 6 8 5 4 9 11 8 5 6 9 12 13 12 9 6 4 3 4 4 5 5 6 6 7 6 5 5 6 5 5
0 0 0 0 0 0 0 0 0 0 0 0 0 2 6 9 7 6 10 12 10 8 8 9 11 12 12 10 8 6 6 6 6 6 6 6 7 8 8 7 6 6 6 6
0 0 0 0 0 0 0 0 0 0 0 0 0 2 5 8 8 7 9 13 14 13 12 10 10 10 9 9 9 9 9 8 7 5 5 7 9 10 9 7 5 5 6 6
0 0 0 0 0 0 0 0 0 0 0 0 0 2 4 7 8 9 11 14 15 16 14 11 8 8 9 9 10 10 10 9 7 6 5 6 9 10 10 7 4 4 6 6
0 0 0 0 0 0 0 0 0 0 0 0 1 2 4 7 10 10 11 13 15 16 16 12 9 10 12 13 12 11 10 9 8 7 6 6 8 10 9 6 3 4 6 7
0 0 0 0 0 0 0 0 0 0 0 0 2 4 6 8 9 10 11 13 16 17 17 15 13 13 16 16 13 11 9 7 8 8 7 6 6 7 7 5 3 3 5 6
0 0 0 0 0 0 0 0 0 0 0 0 2 5 6 7 9 10 12 14 16 17 18 18 17 18 20 19 14 11 10 9 9 9 8 7 5 5 4 4 3 2 2 3
0 0 0 0 0 0 0 0 0 0 0 0 1 2 4 6 9 12 15 16 16 17 20 23 23 23 23 20 15 13 14 14 13 12 10 7 6 5 5 5 4 1 0 1
0 0 0 0 0 0 0 0 0 0 0 0 0 1 4 7 10 15 19 19 18 19 23 26 27 26 23 19 14 13 15 16 17 16 12 9 8 7 6 5 3 1 0 1
0 0 0 0 0 0 0 0 0 0 0 0 1 3 6 9 11 16 21 23 21 22 24 26 27 26 22 19 17 16 16 16 17 16 15 12 10 8 6 4 2 1 0 1
0 0 0 0 0 0 0 0 0 0 0 0 2 5 8 9 11 16 21 24 25 28 28 25 25 25 23 21 22 21 19 18 18 17 17 16 13 9 5 3 2 0 0 1
0 0 0 0 0 1 1 1 1 0 0 0 3 8 10 11 12 15 21 26 30 33 32 27 24 24 23 23 23 23 21 20 20 20 20 20 17 11 7 4 2 0 0 0
0 0 0 0 1 2 2 2 2 1 1 2 5 8 11 12 13 16 21 27 32 34 31 27 23 22 22 21 21 20 20 21 22 23 24 23 20 15 11 7 4 2 2 2
0 0 0 0 1 2 3 4 4 4 5 4 5 8 11 12 14 17 22 28 32 32 30 26 23 21 20 19 17 16 17 20 23 25 25 24 21 17 13 9 7 7 6 6
0 0 0 0 1 2 3 5 7 8 7 6 7 9 13 14 16 19 23 29 31 31 31 28 25 24 21 18 15 14 15 18 21 23 24 23 21 19 15 12 12 11 10 9
0 0 0 0 0 1 2 5 8 9 9 10 11 14 17 20 22 23 26 30 31 31 32 30 28 28 26 20 15 14 15 16 19 20 22 23 23 21 18 16 15 14 12 11
0 0 0 0 0 1 2 4 6 8 11 14 16 19 23 25 27 27 29 31 30 30 30 28 28 30 28 22 17 16 16 17 19 20 22 24 23 22 20 20 20 18 16 15
0 0 0 0 0 1 2 3 5 8 11 13 16 21 24 27 28 27 27 27 25 26 27 26 27 29 27 23 20 18 18 20 22 22 22 23 21 20 20 21 21 21 20 18
0 0 0 0 0 1 3 4 5 7 9 11 15 18 20 23 25 25 24 22 20 21 25 25 25 26 24 21 19 18 19 21 22 21 20 18 16 17 18 19 20 22 22 21
0 0 0 0 1 2 4 5 6 8 9 11 13 16 17 20 22 22 22 19 15 15 19 23 25 24 20 18 16 16 16 16 17 17 15 13 12 13 14 17 20 21 22 22
0 0 0 2 4 6 7 7 9 11 11 11 13 15 18 20 21 21 19 15 11 11 14 19 23 23 19 15 14 12 11 12 14 15 13 11 10 10 12 15 17 18 20 21
0 1 2 4 7 9 10 11 12 13 13 12 14 17 20 21 21 20 17 13 10 10 13 16 18 19 16 13 12 10 9 10 12 13 12 11 10 10 11 12 14 15 17 19
1 2 3 4 6 8 11 12 14 14 13 15 17 19 21 22 21 18 15 12 10 12 13 13 13 13 11 9 10 10 9 10 12 12 11 10 9 10 10 10 10 11 13 14
1 2 3 2 4 7 10 11 13 14 14 16 20 21 22 22 20 16 13 11 12 13 13 12 10 10 9 8 10 10 10 11 13 13 11 9 9 11 11 9 9 9 9 10

GEFSCGP_con_probscp_246.txt.gz
Probability
0 0 0 0 0 0 0 0 0 0 0 0 0 0 0 0 0 0 0 1 2 4 6 5 2 1 1 2 1 0 0 1 2 3 3 3 4 3 1 0 0 0 0 0
0 0 0 0 0 0 0 0 0 0 0 0 0 0 0 0 0 0 0 0 1 3 5 5 4 3 3 4 2 0 0 0 1 2 3 4 5 4 2 1 0 0 0 0
0 0 0 0 0 0 0 0 0 0 0 0 0 0 0 0 0 0 0 0 1 2 4 5 5 5 5 4 2 0 0 0 0 2 4 5 5 4 3 1 0 0 0 0
0 0 0 0 0 0 0 0 0 0 0 0 0 0 0 0 0 0 1 1 1 2 4 5 6 5 4 3 1 0 1 1 0 1 3 4 4 3 2 1 0 0 0 0
0 0 0 0 0 0 0 0 0 0 0 0 0 0 0 0 1 1 1 1 2 4 6 4 4 5 4 3 1 1 1 2 1 1 3 3 3 3 1 0 0 0 0 0
0 0 0 0 0 0 0 0 0 0 0 0 0 0 0 1 2 2 1 1 3 6 7 4 2 3 3 3 2 1 1 2 2 2 3 3 3 2 1 0 0 0 0 0
0 0 0 0 0 0 0 0 0 0 0 0 0 0 1 2 2 1 0 1 3 5 5 3 1 2 2 2 2 1 0 1 1 1 3 3 3 2 1 0 0 0 0 0
0 0 0 0 0 0 0 0 0 0 0 0 0 0 1 2 1 0 0 1 2 2 2 1 0 1 1 1 1 0 0 0 1 1 2 4 3 2 1 2 1 0 0 0
0 0 0 0 0 0 0 0 0 0 0 0 0 0 1 1 1 1 1 1 1 1 0 0 0 0 0 0 0 1 2 3 3 4 4 4 4 3 3 3 2 1 0 0
0 0 0 0 0 0 0 0 0 0 0 0 0 0 1 2 3 3 2 2 2 1 1 2 1 0 1 1 1 2 5 6 6 6 5 5 4 3 3 3 2 1 0 0
0 0 0 0 0 0 0 0 0 0 0 0 0 0 1 2 4 5 4 4 4 3 4 4 2 1 1 1 2 4 6 8 7 6 5 5 4 4 3 3 2 1 0 1
0 0 0 0 0 0 0 0 0 0 0 0 0 1 2 4 6 7 6 6 6 6 6 6 4 3 2 3 4 5 7 9 8 6 4 5 6 5 3 3 2 1 1 2
0 0 0 0 0 1 2 1 0 0 0 0 0 2 5 8 8 8 7 6 7 8 8 9 8 6 6 6 6 6 8 9 8 6 5 5 6 5 4 3 2 1 2 3
0 0 0 1 1 3 3 2 1 1 0 0 0 2 6 9 10 9 8 8 9 9 10 10 10 9 9 8 7 7 8 8 8 8 8 7 6 6 4 3 3 3 4 5
1 1 1 2 3 4 5 4 3 2 1 1 2 3 6 8 8 8 10 11 12 12 12 13 13 12 11 9 8 8 8 7 10 12 12 10 8 6 5 4 4 6 6 6
1 3 3 3 3 4 5 5 4 4 3 3 3 4 4 6 6 7 9 12 13 14 16 18 18 17 16 13 11 10 9 8 11 13 14 13 11 11 9 8 8 9 8 6
1 3 4 3 3 3 3 4 5 6 6 5 5 5 4 5 5 6 8 11 14 17 19 19 20 21 20 16 12 10 9 9 10 11 12 14 15 16 15 14 13 12 10 8
0 1 3 3 2 1 1 1 3 5 7 7 5 6 7 8 7 7 9 13 17 19 18 18 19 19 18 14 10 10 10 9 9 9 9 12 15 17 17 16 14 13 12 12
0 0 1 2 1 0 0 1 1 3 5 6 6 8 11 12 12 11 12 16 19 18 17 17 16 15 12 8 8 10 12 11 9 7 7 9 13 14 14 13 13 13 13 13
0 0 0 1 1 0 1 2 2 2 3 4 6 9 11 12 13 14 16 18 18 17 16 16 14 10 6 5 6 10 13 13 9 7 6 8 10 11 11 11 11 11 12 12
0 0 0 0 0 0 1 3 4 3 4 4 6 9 9 8 10 13 17 19 19 18 16 14 11 8 4 4 5 9 12 11 8 6 7 7 7 7 7 8 8 9 11 12
0 0 0 0 0 0 2 3 4 5 5 5 6 7 8 8 11 14 18 20 20 18 14 10 8 7 5 4 7 8 8 7 6 6 6 5 5 5 5 5 6 7 9 11
1 0 0 0 0 0 1 3 4 5 5 6 7 7 9 12 14 16 18 18 16 13 9 6 5 5 5 6 7 6 4 4 5 5 4 4 4 4 5 5 6 7 9 9
2 1 0 0 0 0 2 4 5 4 5 6 7 8 10 12 14 15 16 14 10 7 5 4 4 4 6 6 6 4 2 3 4 4 3 3 4 5 5 6 7 9 9 10
3 2 1 1 1 1 3 6 6 4 5 7 8 9 9 9 10 11 11 9 6 5 4 4 5 5 7 6 4 3 2 2 3 3 3 4 5 6 6 5 7 8 8 9
5 3 2 2 2 3 5 6 6 4 5 7 9 9 8 6 6 7 7 6 6 5 5 5 5 6 7 6 4 2 2 2 3 3 3 4 5 6 6 5 5 6 6 6

GEFSCGP_con_probscp_252.txt.gz
Probability
0 0 0 0 0 0 0 0 0 0 0 0 0 0 0 0 0 1 1 0 1 2 4 7 8 7 6 6 6 5 3 2 3 3 3 4 4 4 5 5 4 2 1 0
0 0 0 0 0 0 0 0 0 0 0 0 0 0 0 0 0 1 2 1 0 1 4 8 9 8 7 7 6 3 1 1 2 2 2 3 4 5 4 3 3 2 1 0
0 0 0 0 0 0 0 0 0 0 0 0 0 0 0 0 0 1 2 1 0 1 5 9 10 9 8 7 5 2 0 0 1 1 1 1 2 4 4 2 1 1 0 0
0 0 0 0 0 0 0 0 0 0 0 0 0 0 0 0 0 1 2 2 1 1 5 9 10 9 7 6 4 1 0 0 0 0 0 0 2 3 3 3 2 1 0 0
0 0 0 0 0 0 0 0 0 0 0 0 0 0 0 1 1 1 3 3 1 2 5 8 9 7 5 4 3 1 1 1 1 1 1 1 2 3 4 4 3 2 1 1
0 0 0 0 0 0 0 0 0 0 0 0 0 0 1 2 3 3 3 3 3 5 8 9 8 6 4 3 3 3 3 3 3 3 3 2 3 4 5 5 5 4 3 2
0 0 0 0 0 0 0 0 0 0 0 0 0 1 3 5 6 4 4 4 6 10 13 14 11 7 4 4 3 3 5 6 6 6 6 5 6 6 6 6 5 4 3 3
0 0 0 0 0 0 0 0 0 0 0 0 0 1 4 7 7 6 5 6 11 15 17 16 12 8 6 5 4 4 7 10 10 9 9 9 9 7 7 6 5 4 4 4
0 0 0 0 0 0 0 0 0 0 0 0 0 2 4 5 6 5 6 10 15 18 17 13 8 6 6 6 5 6 10 13 13 11 11 12 11 9 8 7 6 6 6 7
0 0 0 0 0 0 0 0 0 0 0 0 1 2 4 5 5 4 6 12 15 16 14 10 6 5 5 7 8 10 12 15 16 15 13 13 12 11 10 9 8 9 10 9
0 0 0 0 0 0 0 0 0 0 0 0 1 3 6 9 9 7 7 10 11 12 12 10 8 7 8 9 11 13 15 17 20 20 17 14 13 13 12 11 11 13 12 10
0 0 0 0 0 0 0 0 0 0 0 0 1 3 7 11 12 10 8 9 10 10 11 12 12 13 14 14 15 17 17 18 20 22 20 17 16 16 16 15 15 16 13 10
0 0 0 0 0 0 0 0 0 0 0 0 1 3 7 11 13 13 12 11 11 13 15 16 17 20 21 22 22 21 20 20 21 22 22 21 20 20 19 18 17 16 15 14
0 0 0 0 0 0 0 0 0 0 1 1 2 4 8 12 14 14 15 13 12 15 20 22 24 27 30 30 30 27 25 24 24 23 23 22 21 20 18 17 16 16 16 18
0 0 1 1 1 1 0 0 1 1 2 3 4 4 9 13 13 13 13 12 11 16 22 26 30 34 36 36 35 32 29 27 27 25 24 22 20 17 16 15 15 15 17 18
1 2 2 2 2 2 1 2 3 3 3 3 2 4 9 12 11 9 9 9 11 15 21 27 33 38 39 38 37 35 32 30 30 28 26 22 19 18 17 16 15 15 17 19
3 3 3 3 3 3 4 5 5 6 5 4 4 7 11 12 11 8 7 9 12 17 23 29 35 39 39 37 37 38 37 36 35 32 29 25 21 19 19 19 19 20 21 21
4 3 3 4 4 4 6 6 6 7 7 8 9 11 13 13 11 9 9 12 16 22 30 35 37 38 37 35 35 37 39 41 40 35 31 28 25 22 21 22 25 26 26 25
4 3 2 3 3 5 6 6 6 7 8 10 12 13 13 12 12 12 13 17 20 25 33 38 39 39 37 35 34 35 37 41 40 34 30 29 28 26 25 28 31 31 29 28
4 4 2 2 3 4 5 4 5 7 7 9 12 14 14 13 14 18 21 22 23 27 32 36 38 38 37 36 35 35 36 37 35 31 28 28 29 29 30 32 33 32 30 29
3 3 3 3 4 4 4 3 4 6 6 8 13 17 18 17 21 26 28 26 26 29 31 33 36 37 36 35 34 34 34 33 31 29 28 27 27 28 29 30 30 29 27 26
2 2 3 4 5 5 3 3 4 6 7 9 14 18 20 22 25 28 30 29 28 31 32 33 35 36 36 34 33 32 31 30 28 27 27 25 24 23 24 27 27 25 23 22
1 2 3 5 5 4 3 3 4 6 8 10 14 17 19 22 25 26 28 29 30 33 34 34 36 37 36 35 33 33 31 29 26 25 24 23 22 21 22 26 27 25 21 20
1 2 3 5 3 2 3 4 5 7 9 12 15 17 19 24 27 28 27 28 31 34 34 34 35 36 36 34 32 32 31 29 26 24 24 24 22 22 25 27 26 23 21 20
2 2 3 5 4 4 5 6 7 9 11 13 15 17 20 26 31 31 27 27 31 34 35 33 33 34 34 32 30 29 30 28 26 25 24 22 20 21 25 25 21 17 15 16
3 2 3 5 8 8 8 9 9 11 13 14 15 17 20 25 31 31 28 27 30 34 35 33 32 32 32 31 29 29 29 26 24 24 23 20 17 19 23 21 15 11 9 9

GEFSCGP_con_probscp_258.txt.gz
Probability
0 0 0 0 0 0 0 0 0 0 0 0 0 1 2 2 1 1 3 5 9 14 16 11 8 8 11 13 14 13 12 12 12 14 12 9 8 9 11 10 8 7 6 5
0 0 0 0 0 0 0 0 0 0 0 0 0 1 3 3 1 1 2 5 9 16 20 16 12 11 13 15 15 15 15 14 14 14 12 8 8 10 12 13 11 8 8 7
0 0 0 0 0 0 0 0 0 0 0 0 0 1 3 4 2 1 1 3 9 16 23 23 19 17 18 17 16 17 18 17 15 13 11 8 7 8 11 13 12 10 8 7
0 0 0 0 0 0 0 0 0 0 0 0 0 1 4 5 4 2 1 3 8 15 23 27 25 23 21 17 17 19 21 20 16 13 11 10 8 7 8 10 12 11 8 7
0 0 0 0 0 0 0 0 0 0 0 0 0 1 4 6 6 4 4 5 9 15 24 30 29 25 21 17 19 25 28 26 21 17 15 14 11 9 8 9 11 11 10 9
0 0 0 0 0 0 0 0 0 0 0 0 0 1 4 7 7 6 7 8 12 19 27 34 34 29 24 20 23 31 36 34 27 22 21 20 17 14 12 12 12 12 11 12
0 0 0 0 0 0 0 0 0 0 0 0 0 2 5 7 7 7 8 11 17 24 32 37 37 34 29 25 26 34 41 40 32 25 24 24 21 18 16 15 15 13 12 13
0 0 0 0 0 0 0 0 0 0 0 0 1 4 7 7 7 7 10 14 20 27 33 35 36 34 30 25 25 34 43 43 35 29 27 25 22 19 18 18 18 16 14 13
0 0 0 0 0 0 0 0 0 0 0 1 3 6 9 9 8 9 11 14 19 25 30 32 33 32 29 26 29 38 46 46 40 34 30 26 23 21 20 20 19 18 17 16
0 0 0 0 0 0 0 0 0 0 0 1 4 7 10 12 11 11 12 14 17 24 29 31 32 32 32 32 36 43 49 50 44 38 33 29 29 29 27 25 24 24 23 22
0 0 0 0 0 0 0 0 0 0 0 0 2 7 11 13 14 14 15 16 18 23 29 31 31 32 34 37 42 48 52 52 48 42 37 34 35 36 34 31 31 31 29 26
0 0 0 0 0 0 0 0 0 0 0 0 2 6 11 13 16 17 17 19 21 24 28 30 29 30 34 40 45 50 54 54 50 45 40 37 38 38 36 35 35 35 31 27
0 0 0 0 0 0 0 0 0 0 0 0 2 7 11 14 17 19 20 23 26 28 31 33 34 35 40 46 50 52 54 52 49 46 42 40 40 39 37 36 36 34 30 27
0 0 0 0 0 0 0 0 0 0 0 1 4 8 13 16 18 21 24 28 31 34 39 44 47 50 53 58 58 54 52 50 49 49 46 43 42 40 38 37 34 30 27 26
0 0 0 0 0 0 0 0 0 0 0 2 6 11 16 20 21 23 26 31 35 39 44 51 57 62 66 69 66 59 53 52 53 53 50 46 44 42 42 40 36 29 24 23
0 0 0 0 0 0 0 0 0 0 1 3 7 15 21 23 23 24 26 30 34 39 45 51 58 63 69 71 69 63 56 54 54 54 53 52 50 48 46 43 37 31 26 26
1 2 1 0 0 0 0 1 2 2 4 6 10 16 21 22 23 24 26 30 34 39 45 50 54 60 65 67 66 63 58 53 52 53 55 57 55 52 47 42 37 34 33 34
3 5 3 0 0 1 2 4 4 6 9 11 14 17 18 19 21 24 28 32 35 40 47 51 53 57 61 62 62 60 56 53 51 52 54 56 55 52 47 43 39 39 40 40
5 7 4 0 1 3 5 7 7 8 12 16 19 18 17 18 19 25 31 35 35 38 47 52 52 53 57 59 58 57 54 51 51 52 52 52 52 52 50 47 44 44 43 40
5 8 5 1 3 5 7 8 8 9 13 19 21 20 19 20 23 31 38 40 38 38 45 51 51 54 57 58 58 56 53 50 49 49 49 48 49 52 52 50 48 46 44 41
5 7 6 4 4 6 8 9 10 15 20 23 23 22 23 27 33 39 44 46 44 44 47 50 53 57 59 59 59 58 56 52 49 46 45 45 47 48 49 50 49 48 46 44
7 7 8 8 10 13 15 16 19 26 29 27 27 28 31 37 40 43 46 47 47 49 49 51 55 58 58 57 58 58 57 54 50 46 44 44 44 43 44 46 47 47 45 45
8 9 10 14 18 21 21 23 27 30 32 30 30 33 37 40 40 42 46 47 46 47 48 49 52 54 53 53 54 55 54 52 51 48 46 45 44 43 42 42 42 42 43 43
10 10 14 18 20 20 19 20 25 27 28 28 29 33 36 36 36 40 45 46 43 43 45 47 48 50 49 47 48 49 48 49 50 49 48 47 45 45 44 41 37 36 38 39
11 12 15 18 18 16 15 17 22 25 26 25 26 30 33 31 32 37 41 42 40 42 44 45 46 47 45 42 42 43 44 46 49 49 46 44 42 43 44 40 32 27 26 27
11 13 15 17 17 17 17 18 22 26 26 24 24 29 31 30 30 34 37 39 40 42 45 44 43 43 42 39 39 42 43 44 48 47 42 38 37 40 42 37 27 19 15 13

GEFSCGP_con_probscp_264.txt.gz
Probability
0 0 0 0 0 0 0 0 0 0 0 0 0 1 2 3 4 6 7 8 8 8 7 4 4 7 8 7 6 6 6 6 6 5 2 1 0 0 0 0 0 0 0 0
0 0 0 0 0 0 0 0 0 0 0 0 0 0 1 3 4 4 6 8 9 9 9 6 5 7 8 7 6 7 7 8 8 6 4 2 1 0 0 0 0 0 0 0
0 0 0 0 0 0 0 0 0 0 0 0 0 0 1 2 2 3 5 9 11 11 12 10 8 7 8 8 7 8 9 11 11 8 5 3 2 0 0 0 0 0 0 0
0 0 0 0 0 0 0 0 0 0 0 0 0 0 1 1 2 3 6 9 11 12 14 14 11 10 9 9 9 9 10 10 10 9 7 5 4 2 0 0 0 0 0 0
0 0 0 0 0 0 0 0 0 0 0 0 0 1 2 2 2 4 7 9 10 11 13 15 15 13 11 10 10 9 9 9 9 9 8 7 5 3 1 0 0 0 1 1
0 0 0 0 0 0 0 0 0 0 0 0 0 1 2 3 3 4 7 9 9 9 10 13 16 15 12 11 12 11 8 7 8 9 9 8 6 5 3 2 2 2 2 2
0 0 0 0 0 0 0 0 0 0 0 0 0 1 3 3 3 4 6 8 8 7 7 10 15 18 16 16 17 15 11 8 9 10 10 9 8 7 7 6 6 5 4 3
0 0 0 0 0 0 0 0 0 0 0 0 0 2 4 4 4 4 6 7 6 6 8 11 15 19 20 20 21 20 15 10 10 12 12 11 10 10 9 9 8 6 4 4
0 0 0 0 0 0 0 0 0 0 0 0 1 2 4 4 5 6 7 6 5 6 9 13 17 20 20 19 21 21 17 13 12 13 14 14 13 13 12 11 9 7 5 4
0 0 0 0 0 0 0 0 0 0 0 0 1 2 3 4 6 8 9 8 6 7 10 16 20 21 18 16 17 20 19 16 15 15 16 16 17 17 16 14 12 10 7 5
0 0 0 0 0 0 0 0 0 0 0 0 0 1 3 5 7 10 13 12 9 9 11 15 21 21 17 13 15 20 22 20 18 18 18 19 19 20 19 17 15 13 10 8
0 0 0 0 0 0 0 0 0 0 0 0 0 2 6 8 10 13 17 17 14 12 13 15 19 20 19 17 18 22 25 25 23 23 23 23 23 23 21 19 16 15 13 10
0 0 0 0 0 0 0 0 0 0 0 0 1 5 10 13 14 16 19 20 17 15 16 17 18 20 22 25 26 27 29 29 28 28 28 28 27 25 22 18 15 15 14 12
0 0 0 0 0 0 0 0 0 0 0 0 3 8 13 15 14 16 19 21 21 19 18 18 18 19 23 28 32 34 34 32 31 31 30 29 27 25 20 15 12 13 14 14
0 0 0 0 0 0 0 1 1 0 0 1 5 10 13 12 12 14 18 23 24 22 19 16 17 20 23 26 33 38 36 32 31 31 30 28 25 22 18 14 13 15 16 15
0 0 0 0 0 0 1 2 2 1 1 2 6 10 10 10 12 16 22 27 28 25 20 17 18 21 25 29 34 38 35 31 29 30 31 29 26 22 18 15 15 16 17 17
0 0 0 0 0 0 1 3 4 3 3 4 8 10 10 12 15 21 28 35 34 27 21 19 19 22 28 33 37 37 33 30 30 31 32 32 28 24 20 17 16 16 16 17
0 0 0 0 0 0 1 3 4 5 5 6 9 12 16 18 22 27 34 39 35 27 21 21 23 27 31 34 36 35 31 28 30 32 33 31 28 25 22 19 17 17 17 18
0 0 0 0 0 0 1 2 3 4 5 7 11 15 20 24 27 30 34 36 33 26 23 24 28 32 34 32 31 31 29 28 29 31 33 31 28 25 24 22 21 21 22 23
0 0 0 0 1 1 2 2 1 2 4 8 13 18 21 24 24 25 29 32 31 28 26 27 31 34 34 31 29 30 30 29 29 30 31 31 30 27 24 22 22 23 24 25
0 0 0 0 1 2 2 1 0 1 4 9 14 20 22 21 19 21 27 31 31 29 28 29 31 33 31 30 31 32 31 29 28 28 28 30 30 28 24 21 20 21 22 23
1 2 1 1 1 3 3 2 1 3 8 13 18 22 24 22 22 25 29 31 30 28 27 28 30 30 29 29 32 31 28 25 25 26 26 26 27 26 23 20 18 18 19 20
3 3 4 4 4 5 6 6 5 7 13 19 22 23 24 26 27 28 28 28 28 27 27 27 28 28 27 28 30 27 23 21 21 21 23 23 23 23 22 20 17 17 17 18
5 6 8 9 9 9 9 9 9 12 16 20 21 21 22 24 26 25 24 25 26 26 25 25 26 25 24 25 25 22 19 19 17 17 20 22 21 21 20 18 17 16 16 16
8 10 12 13 12 10 9 9 12 15 17 18 18 17 17 19 20 21 22 24 25 23 22 21 21 21 21 21 20 18 18 17 14 14 18 21 21 20 17 15 14 13 12 11
11 11 13 13 11 8 8 9 12 15 17 18 16 15 15 15 16 19 22 25 24 21 18 17 17 18 19 19 17 17 17 15 13 13 16 19 20 19 15 12 11 10 7 7